[Iaude] MPEC T258: 2023 TF14 [a=1.38,e=0.21,i=27.2,H=23.5]
    mpec at marsden.cfa.harvard.edu 
    mpec at marsden.cfa.harvard.edu
       
    Sun Oct 15 15:57:29 EDT 2023
    
    
  
M.P.E.C. 2023-T258                             Issued 2023 October 15, 19:55 UT
     The Minor Planet Electronic Circulars contain information on unusual
         minor planets, routine data on comets and natural satellites,
         and occasional editorial announcements.  They are published
    on behalf of Division F of the International Astronomical Union by the
          Minor Planet Center, Smithsonian Astrophysical Observatory,
                          Cambridge, MA 02138, U.S.A.
			  
             Prepared using the Tamkin Foundation Computer Network
                              MPC at CFA.HARVARD.EDU
            URL https://www.minorplanetcenter.net/    ISSN 1523-6714
                                   2023 TF14                                    
Observations:
     K23T14F* C2023 10 11.40665701 58 57.114-01 33 50.73         20.93wXET258F52
     K23T14F  C2023 10 11.41877501 58 53.546-01 32 50.80         21.29wXET258F52
     K23T14F  C2023 10 11.44310201 58 46.362-01 30 49.37         21.03wXET258F52
     K23T14F  C2023 10 11.52520901 58 22.094-01 23 59.91         20.99GVET258F51
     K23T14F  C2023 10 11.52602501 58 21.852-01 23 55.48         21.15GVET258F51
     K23T14F  C2023 10 11.56092001 58 11.579-01 21 01.14         21.54GVET258F51
     K23T14F  C2023 10 11.56173501 58 11.349-01 20 57.04         21.65GVET258F51
     K23T14F 6C2023 10 12.01791201 56 03.218-00 42 38.68         20.9 GVET258Z84
     K23T14F 6C2023 10 12.02985401 55 59.611-00 41 37.20         20.9 GVET258Z84
     K23T14F KC2023 10 12.25764801 54 53.85 -00 22 08.2          21.2 VuET258H21
     K23T14F KC2023 10 12.26165101 54 53.532-00 21 43.49         20.85GVET258I52
     K23T14F KC2023 10 12.26185801 54 52.57 -00 21 46.7                uET258H21
     K23T14F KC2023 10 12.26407601 54 52.780-00 21 31.28         21.02GVET258I52
     K23T14F KC2023 10 12.26650301 54 52.052-00 21 18.07         20.98GVET258I52
     K23T14F KC2023 10 12.26892101 54 51.307-00 21 06.12         20.94GVET258I52
     K23T14F KC2023 10 12.26999701 54 50.08 -00 21 04.4          20.8 VuET258H21
     K23T14F mC2023 10 15.43639201 38 21.692+04 29 29.72               VET258I52
     K23T14F mC2023 10 15.43694401 38 21.556+04 29 32.42         21.50GVET258I52
     K23T14F mC2023 10 15.43749601 38 21.404+04 29 36.38         20.93GVET258I52
     K23T14F mC2023 10 15.43805201 38 21.199+04 29 39.37         21.91GVET258I52
Observer details:
F51 Pan-STARRS 1, Haleakala.  Observers J. Bulger, T. Lowe, P. Minguez, A.
    Schultz, I. Smith.  Measurers K. Chambers, T. de Boer, J. Fairlamb, H.
    Gao, M. Huber, C.-C. Lin, E. Magnier, Y. Ramanjooloo, R. Wainscoat, R.
    Weryk.  1.8-m Ritchey-Chretien + CCD.
F52 Pan-STARRS 2, Haleakala.  Observers J. Bulger, T. Lowe, P. Minguez, A.
    Schultz, I. Smith.  Measurers K. Chambers, T. de Boer, J. Bulger, J.
    Fairlamb, H. Gao, M. Huber, C.-C. Lin, T. Lowe, E. Magnier, P. Minguez, Y.
    Ramanjooloo, A. Schultz, I. Smith, R. Wainscoat, R. Weryk.  1.8-m Ritchey-
    Chretien + CCD.
H21 Astronomical Research Observatory, Westfield.  Observer R. Holmes.
    Measurers T. Linder, R. Holmes, L. Horn.  0.81-m f/4.0 astrograph + CCD.
I52 Steward Observatory, Mt. Lemmon Station.  Observers J. B. Fazekas, J. K.
    Hogan.  Measurers E. C. Beshore, D. Fay, J. B. Fazekas, D. C. Fuls, A. R.
    Gibbs, A. D. Grauer, H. Groeller, J. K. Hogan, R. A. Kowalski, S. M.
    Larson, G. J. Leonard, D. Rankin, R. L. Seaman, F. C. Shelly, K. W.
    Wierzchos.  1.0-m prime focus + CCD.
Z84 Calar Alto-Schmidt.  Observers M. Micheli, R. Kresken.  Measurers R.
    Kresken, M. Micheli, F. Ocana, L. Conversi.  0.8-m f/3 Schmidt + CCD.
Orbital elements:
2023 TF14                                                Earth MOID = 0.1894 AU
Epoch 2023 Sept. 13.0 TT = JDT 2460200.5                Veres                   
M 298.05037              (2000.0)            P               Q                  
n   0.60685561     Peri.   59.54559     +0.15450765     -0.97065995             
a   1.3816959      Node    23.78671     +0.67471448     -0.03256262             
e   0.2069074      Incl.   27.18138     +0.72172554     +0.23824135             
P   1.62           H   23.55          G   0.15           U   9                  
Residuals in seconds of arc
231011 F52  0.0   0.1+    231012 Z84  0.1+  0.0     231012 I52  0.0   0.2-
231011 F52  0.0   0.2-    231012 Z84  0.1-  0.4+    231012 H21  0.7-  0.1-
231011 F52  0.2-  0.2+    231012 H21  0.4-  0.1-    231015 I52  0.9-  0.0
231011 F51  0.1-  0.2-    231012 I52  0.2+  0.0     231015 I52  0.1-  0.5-
231011 F51  0.1-  0.2+    231012 H21  0.4-  0.4-    231015 I52  0.5+  0.3+
231011 F51  0.1+  0.2-    231012 I52  0.0   0.3-    231015 I52  0.2+  0.0
231011 F51  0.2+  0.2-    231012 I52  0.1+  0.4+
Ephemeris:
2023 TF14                a,e,i = 1.38, 0.21, 27                  q = 1.0958
Date    TT    R. A. (2000) Decl.     Delta      r    Elong.  Phase     V
2023 09 15    02 58 50.2 -20 42 54   0.4132  1.2934   126.1    38.9    23.7
...
2023 09 30    02 38 29.3 -13 24 00   0.2932  1.2480   142.8    29.0    22.6
...
2023 10 08    02 13 31.8 -05 53 52   0.2413  1.2247   156.6    18.9    21.9
...
2023 10 14    01 46 07.5 +02 13 43   0.2127  1.2079   170.2     8.0    21.2
2023 10 15    01 40 47.4 +03 47 43   0.2090  1.2051   172.8     6.0    21.0
2023 10 16    01 35 14.6 +05 24 54   0.2058  1.2024   175.3     3.9    20.9
...
2023 10 22    00 57 59.2 +15 51 50   0.1948  1.1865   167.7    10.3    21.0
...
2023 10 30    00 02 18.8 +29 10 13   0.2034  1.1667   145.6    28.7    21.7
...
2023 11 14    22 33 06.4 +43 53 31   0.2685  1.1349   116.4    51.3    22.9
M. P. C. Staff               (C) Copyright 2023 MPC           M.P.E.C. 2023-T258
    
    
More information about the Iaude
mailing list